Lander, WY

4:28 PM MST on February 24, 2017 (GMT -0700)
Hunt

Weather History for KLND - March, 2013

Change the Weather History Date:

Thursday, March 21, 2013

  Actual Average Record
Temperature  
Mean Temperature 36 °F 37 °F  
Max Temperature 49 °F 49 °F 71 °F (1910)
Min Temperature 23 °F 25 °F -14 °F (1912)
Degree Days  
Heating Degree Days 29 28  
Month to date heating degree days 589 653  
Since 1 July heating degree days 5958 6357  
Cooling Degree Days 0 0  
Month to date cooling degree days 0 0  
Year to date cooling degree days 0 0  
Moisture  
Dew Point 22 °F    
Average Humidity 52    
Maximum Humidity 75    
Minimum Humidity 29    
Precipitation  
Precipitation T in 0.04 in 0.60 in (1981)
Month to date precipitation T 0.70  
Year to date precipitation 1.98 1.69  
Snow  
Snow T in 0.60 in - ()
Month to date snowfall T 10.1  
Since 1 July snowfall 52.2 63.7  
Snow Depth T in    
Sea Level Pressure  
Sea Level Pressure 29.65 in    
Wind  
Wind Speed 7 mph (ESE)    
Max Wind Speed 25 mph    
Max Gust Speed 33 mph    
Visibility 8 miles    
Events Snow , Thunderstorm    
T = Trace of Precipitation, MM = Missing Value Source: NWS Daily Summary

Daily Weather History Graph

Daily Weather History Graph

Search for Another Location

Airport or City:

Trip Planner

Search our weather history database for the weather conditions in past years. The results will help you decide how hot, cold, wet, or windy it might be!

Date:

Astronomy

Mar. 21, 2013 Rise Set
Actual Time 7:15 AM MDT 7:28 PM MDT
Civil Twilight 6:47 AM MDT 7:57 PM MDT
Nautical Twilight 6:14 AM MDT 8:30 PM MDT
Astronomical Twilight 5:40 AM MDT 9:04 PM MDT
Moon 1:54 PM MDT (3/21) 3:46 AM MDT (3/21)
Length of Visible Light 13h 09m
Length of Day
12h 12m
Waxing Gibbous, 69% of the Moon is Illuminated
Mar 21
Waxing Gibbous
Mar 27
Full
Apr 2
Last Quarter
Apr 10
New
Apr 18
First Quarter

Hourly Weather History & Observations

Time (MDT) Temp. Windchill Dew Point Humidity Pressure Visibility Wind Dir Wind Speed Gust Speed Precip Events Conditions
12:53 AM 39.0 °F 36.8 °F 23.0 °F 53% 29.59 in 10.0 mi Variable 3.5 mph - N/A   Overcast
1:53 AM 35.1 °F 31.0 °F 23.0 °F 61% 29.54 in 10.0 mi East 4.6 mph - N/A   Partly Cloudy
2:53 AM 36.0 °F 29.6 °F 23.0 °F 59% 29.51 in 10.0 mi West 8.1 mph - N/A   Clear
3:53 AM 37.9 °F 35.5 °F 23.0 °F 55% 29.47 in 10.0 mi Variable 3.5 mph - N/A   Scattered Clouds
4:53 AM 33.1 °F - 24.1 °F 70% 29.49 in 10.0 mi Calm Calm - N/A   Partly Cloudy
5:53 AM 37.9 °F - 24.1 °F 57% 29.49 in 10.0 mi Calm Calm - N/A   Overcast
6:53 AM 36.0 °F 33.3 °F 24.1 °F 62% 29.49 in 10.0 mi SE 3.5 mph - N/A   Mostly Cloudy
7:53 AM 37.0 °F 34.5 °F 24.1 °F 59% 29.51 in 10.0 mi ESE 3.5 mph - N/A   Mostly Cloudy
8:53 AM 35.1 °F - 25.0 °F 67% 29.52 in 10.0 mi Calm Calm - N/A   Clear
9:53 AM 41.0 °F - 28.9 °F 62% 29.53 in 10.0 mi Calm Calm - N/A   Clear
10:53 AM 45.0 °F 42.6 °F 28.0 °F 52% 29.50 in 10.0 mi Variable 4.6 mph - N/A   Scattered Clouds
11:53 AM 44.1 °F 35.9 °F 26.1 °F 49% 29.55 in 10.0 mi ENE 19.6 mph 26.5 mph N/A   Mostly Cloudy
12:07 PM 39.2 °F 29.0 °F 28.4 °F 65% 29.58 in 10.0 mi NE 21.9 mph 28.8 mph N/A   Mostly Cloudy
12:20 PM 37.4 °F 25.9 °F 28.4 °F 70% 29.59 in 7.0 mi ENE 25.3 mph 31.1 mph 0.00 in Snow , Thunderstorm Light Thunderstorms and Snow
12:35 PM 37.4 °F 27.8 °F 21.2 °F 52% 29.61 in 7.0 mi NW 17.3 mph 26.5 mph 0.00 in Snow , Thunderstorm Light Thunderstorms and Snow
12:53 PM 35.1 °F 23.8 °F 21.9 °F 59% 29.63 in 1.0 mi North 20.7 mph 33.4 mph 0.00 in Snow , Thunderstorm Light Thunderstorms and Snow
1:04 PM 33.8 °F 23.2 °F 23.0 °F 65% 29.64 in 2.0 mi North 17.3 mph 28.8 mph 0.00 in Snow Light Snow
1:13 PM 33.8 °F 23.9 °F 24.8 °F 70% 29.65 in 5.0 mi North 15.0 mph - 0.00 in   Haze
1:53 PM 39.9 °F 36.7 °F 25.0 °F 55% 29.65 in 10.0 mi South 4.6 mph - 0.00 in   Overcast
2:53 PM 39.9 °F 32.9 °F 23.0 °F 51% 29.67 in 10.0 mi ESE 11.5 mph - N/A   Overcast
3:53 PM 37.9 °F 30.5 °F 19.9 °F 48% 29.70 in 10.0 mi East 11.5 mph - N/A   Overcast
4:53 PM 36.0 °F 28.5 °F 23.0 °F 59% 29.74 in 7.0 mi SE 10.4 mph - N/A   Overcast
5:53 PM 36.0 °F 30.3 °F 24.1 °F 62% 29.75 in 10.0 mi South 6.9 mph - 0.00 in   Overcast
6:35 PM 35.6 °F 28.0 °F 24.8 °F 65% 29.76 in 3.0 mi ESE 10.4 mph - 0.00 in Snow Light Snow
6:49 PM 32.0 °F 22.5 °F 27.0 °F 82% 29.80 in 1.5 mi ESE 12.7 mph - 0.00 in Snow Light Snow
6:59 PM 30.2 °F 22.6 °F 26.6 °F 86% 29.77 in 3.0 mi SE 8.1 mph - 0.00 in Snow Light Snow
7:09 PM 30.2 °F 22.6 °F 26.6 °F 86% 29.77 in 10.0 mi ESE 8.1 mph - 0.00 in   Mostly Cloudy
7:53 PM 28.0 °F 20.8 °F 25.0 °F 88% 29.83 in 10.0 mi SSE 6.9 mph - 0.00 in   Scattered Clouds
8:53 PM 28.9 °F 23.9 °F 21.0 °F 72% 29.85 in 10.0 mi WSW 4.6 mph - N/A   Clear
9:53 PM 28.9 °F 25.2 °F 3.0 °F 33% 29.83 in 10.0 mi NNW 3.5 mph - N/A   Clear
10:53 PM 28.0 °F 22.8 °F 1.0 °F 31% 29.82 in 10.0 mi West 4.6 mph - N/A   Clear
11:53 PM 28.0 °F 22.8 °F -0.0 °F 30% 29.83 in 10.0 mi SW 4.6 mph - N/A   Clear